| time (UTC) | temp F | wind direction | speed MPH | gust MPH | rain 1hr in | rain 24hr in | rain mn in | humidity % | barometer mb |
| 20260502122933 | 42 | 271 | 2.0 | 2.0 | 0.00 | 0.00 | 0.00 | 70 | 1017.4 |
| 20260502121902 | 41 | 254 | 2.0 | 3.0 | 0.00 | 0.00 | 0.00 | 71 | 1017.4 |
| 20260502120902 | 41 | 262 | 1.0 | 2.0 | 0.00 | 0.00 | 0.00 | 71 | 1017.4 |
| 20260502115903 | 41 | 279 | 1.0 | 2.0 | 0.00 | 0.00 | 0.00 | 69 | 1017.4 |
| 20260502114901 | 41 | 277 | 0.0 | 0.0 | 0.00 | 0.00 | 0.00 | 69 | 1017.3 |
| 20260502113903 | 41 | 271 | 0.0 | 0.0 | 0.00 | 0.00 | 0.00 | 69 | 1017.3 |
| 20260502112902 | 41 | 269 | 0.0 | 0.0 | 0.00 | 0.00 | 0.00 | 69 | 1017.2 |
| 20260502111932 | 41 | 269 | 0.0 | 0.0 | 0.00 | 0.00 | 0.00 | 70 | 1017.2 |
| 20260502110903 | 41 | 269 | 0.0 | 0.0 | 0.00 | 0.00 | 0.00 | 69 | 1017.2 |
| 20260502105932 | 41 | 269 | 1.0 | 1.0 | 0.00 | 0.00 | 0.00 | 69 | 1017.1 |
| 20260502104932 | 41 | 265 | 1.0 | 2.0 | 0.00 | 0.00 | 0.00 | 68 | 1017.1 |
| 20260502103902 | 41 | 270 | 1.0 | 2.0 | 0.00 | 0.00 | 0.00 | 68 | 1017.1 |
| 20260502102902 | 42 | 271 | 1.0 | 2.0 | 0.00 | 0.00 | 0.00 | 68 | 1017.1 |
| 20260502101902 | 42 | 275 | 1.0 | 2.0 | 0.00 | 0.00 | 0.00 | 67 | 1017.2 |
| 20260502100902 | 42 | 273 | 1.0 | 2.0 | 0.00 | 0.00 | 0.00 | 67 | 1017.1 |
| 20260502090932 | 42 | 267 | 2.0 | 2.0 | 0.00 | 0.00 | 0.00 | 64 | 1017.1 |
| 20260502070902 | 42 | 241 | 0.0 | 0.0 | 0.00 | 0.00 | 0.00 | 67 | 1017.5 |
| 20260502065902 | 41 | 241 | 0.0 | 0.0 | 0.00 | 0.00 | 0.00 | 69 | 1017.5 |
| 20260502064902 | 40 | 241 | 0.0 | 0.0 | 0.00 | 0.00 | 0.00 | 67 | 1017.6 |
| 20260502063902 | 40 | 232 | 0.0 | 0.0 | 0.00 | 0.00 | 0.00 | 66 | 1017.6 |
| 20260502062902 | 41 | 266 | 0.0 | 0.0 | 0.00 | 0.00 | 0.00 | 68 | 1017.6 |
| 20260502061902 | 41 | 273 | 0.0 | 0.0 | 0.00 | 0.00 | 0.00 | 66 | 1017.6 |
| 20260502060932 | 41 | 273 | 0.0 | 0.0 | 0.00 | 0.00 | 0.00 | 67 | 1017.6 |
| 20260502055902 | 42 | 273 | 1.0 | 2.0 | 0.00 | 0.00 | 0.00 | 67 | 1017.6 |
| 20260502054902 | 41 | 273 | 0.0 | 2.0 | 0.00 | 0.00 | 0.00 | 65 | 1017.7 |
| 20260502053902 | 41 | 273 | 0.0 | 0.0 | 0.00 | 0.00 | 0.00 | 63 | 1017.7 |
| 20260502052932 | 41 | 273 | 0.0 | 0.0 | 0.00 | 0.00 | 0.00 | 64 | 1017.7 |
| 20260502051902 | 41 | 273 | 0.0 | 0.0 | 0.00 | 0.00 | 0.00 | 64 | 1017.7 |
| 20260502050902 | 41 | 5 | 1.0 | 1.0 | 0.00 | 0.00 | 0.00 | 61 | 1017.6 |
| 20260502045902 | 42 | 5 | 0.0 | 0.0 | 0.00 | 0.00 | 0.00 | 59 | 1017.6 |
| 20260502044903 | 42 | 5 | 0.0 | 0.0 | 0.00 | 0.00 | 0.00 | 59 | 1017.6 |
| 20260502043902 | 42 | 5 | 0.0 | 0.0 | 0.00 | 0.00 | 0.00 | 59 | 1017.5 |
| 20260502042901 | 42 | 5 | 0.0 | 0.0 | 0.00 | 0.00 | 0.00 | 57 | 1017.5 |
| 20260502041902 | 42 | 5 | 0.0 | 0.0 | 0.00 | 0.00 | 0.00 | 60 | 1017.6 |
| 20260502040902 | 43 | 11 | 0.0 | 0.0 | 0.00 | 0.00 | 0.00 | 54 | 1017.6 |
| 20260502035902 | 43 | 11 | 0.0 | 0.0 | 0.00 | 0.00 | 0.00 | 54 | 1017.6 |
| 20260502034902 | 43 | 20 | 0.0 | 0.0 | 0.00 | 0.00 | 0.00 | 53 | 1017.7 |
| 20260502033902 | 44 | 20 | 0.0 | 0.0 | 0.00 | 0.00 | 0.00 | 50 | 1017.6 |
| 20260502032902 | 44 | 20 | 0.0 | 0.0 | 0.00 | 0.00 | 0.00 | 50 | 1017.7 |
| 20260502031932 | 44 | 20 | 0.0 | 0.0 | 0.00 | 0.00 | 0.00 | 48 | 1017.7 |
| 20260502030902 | 44 | 20 | 0.0 | 0.0 | 0.00 | 0.00 | 0.00 | 48 | 1017.6 |
| 20260502025902 | 45 | 20 | 0.0 | 0.0 | 0.00 | 0.00 | 0.00 | 48 | 1017.6 |
| 20260502024933 | 45 | 20 | 0.0 | 0.0 | 0.00 | 0.00 | 0.00 | 47 | 1017.6 |
| 20260502023902 | 45 | 20 | 0.0 | 0.0 | 0.00 | 0.00 | 0.00 | 48 | 1017.6 |
| 20260502022901 | 45 | 20 | 0.0 | 0.0 | 0.00 | 0.00 | 0.00 | 51 | 1017.6 |
| 20260502021932 | 46 | 20 | 0.0 | 0.0 | 0.00 | 0.00 | 0.00 | 49 | 1017.5 |
| 20260502020902 | 46 | 20 | 0.0 | 0.0 | 0.00 | 0.00 | 0.00 | 49 | 1017.5 |
| 20260502015903 | 46 | 20 | 0.0 | 0.0 | 0.00 | 0.00 | 0.00 | 47 | 1017.4 |
| 20260502014902 | 47 | 20 | 0.0 | 0.0 | 0.00 | 0.00 | 0.00 | 45 | 1017.3 |
| 20260502013902 | 48 | 20 | 0.0 | 0.0 | 0.00 | 0.00 | 0.00 | 43 | 1017.2 |
| 20260502012902 | 49 | 20 | 0.0 | 0.0 | 0.00 | 0.00 | 0.00 | 43 | 1017.1 |
| 20260502011902 | 49 | 20 | 0.0 | 0.0 | 0.00 | 0.00 | 0.00 | 42 | 1017.1 |
| 20260502010902 | 50 | 20 | 0.0 | 0.0 | 0.00 | 0.00 | 0.00 | 40 | 1017.1 |
| 20260502005902 | 51 | 20 | 0.0 | 0.0 | 0.00 | 0.00 | 0.00 | 38 | 1017.0 |
| 20260502004902 | 51 | 20 | 0.0 | 0.0 | 0.00 | 0.00 | 0.00 | 37 | 1017.0 |
| 20260502003902 | 51 | 22 | 0.0 | 0.0 | 0.00 | 0.00 | 0.00 | 36 | 1017.0 |
| 20260502002902 | 52 | 19 | 1.0 | 2.0 | 0.00 | 0.00 | 0.00 | 37 | 1017.0 |
| 20260502001902 | 52 | 22 | 1.0 | 2.0 | 0.00 | 0.00 | 0.00 | 37 | 1016.9 |
| 20260502000902 | 52 | 5 | 1.0 | 1.0 | 0.00 | 0.00 | 0.00 | 35 | 1016.9 |
| 20260501235902 | 52 | 331 | 0.0 | 0.0 | 0.00 | 0.00 | 0.00 | 35 | 1016.9 |
| 20260501234902 | 52 | 16 | 2.0 | 2.0 | 0.00 | 0.00 | 0.00 | 37 | 1016.9 |
| 20260501233902 | 53 | 67 | 2.0 | 3.0 | 0.00 | 0.00 | 0.00 | 36 | 1016.9 |
| 20260501232902 | 53 | 282 | 1.0 | 2.0 | 0.00 | 0.00 | 0.00 | 33 | 1016.9 |
| 20260501231902 | 54 | 352 | 1.0 | 3.0 | 0.00 | 0.00 | 0.00 | 37 | 1017.0 |
| 20260501230902 | 54 | 28 | 2.0 | 3.0 | 0.00 | 0.00 | 0.00 | 35 | 1017.0 |
| 20260501225902 | 54 | 227 | 1.0 | 2.0 | 0.00 | 0.00 | 0.00 | 36 | 1016.9 |
| 20260501224902 | 54 | 16 | 2.0 | 3.0 | 0.00 | 0.00 | 0.00 | 36 | 1016.9 |
| 20260501223902 | 54 | 211 | 1.0 | 4.0 | 0.00 | 0.00 | 0.00 | 35 | 1016.9 |
| 20260501222902 | 54 | 5 | 1.0 | 2.0 | 0.00 | 0.00 | 0.00 | 37 | 1017.0 |
| 20260501221902 | 55 | 7 | 1.0 | 2.0 | 0.00 | 0.00 | 0.00 | 36 | 1017.1 |
| 20260501220902 | 55 | 40 | 1.0 | 3.0 | 0.00 | 0.00 | 0.00 | 36 | 1017.0 |
| 20260501215902 | 55 | 12 | 2.0 | 3.0 | 0.00 | 0.00 | 0.00 | 35 | 1017.0 |
| 20260501214902 | 55 | 8 | 3.0 | 5.0 | 0.00 | 0.00 | 0.00 | 35 | 1017.0 |
| 20260501213932 | 54 | 17 | 2.0 | 3.0 | 0.00 | 0.00 | 0.00 | 36 | 1017.0 |
| 20260501212902 | 54 | 21 | 3.0 | 4.0 | 0.00 | 0.00 | 0.00 | 37 | 1017.1 |
| 20260501211902 | 54 | 19 | 4.0 | 5.0 | 0.00 | 0.00 | 0.00 | 37 | 1017.1 |
| 20260501210902 | 54 | 325 | 3.0 | 4.0 | 0.00 | 0.00 | 0.00 | 38 | 1017.2 |
| 20260501205902 | 53 | 112 | 1.0 | 2.0 | 0.00 | 0.00 | 0.00 | 38 | 1017.3 |
| 20260501204902 | 54 | 34 | 2.0 | 3.0 | 0.00 | 0.00 | 0.00 | 37 | 1017.4 |
| 20260501203902 | 55 | 54 | 2.0 | 4.0 | 0.00 | 0.00 | 0.00 | 35 | 1017.4 |
| 20260501202902 | 57 | 260 | 0.0 | 1.0 | 0.00 | 0.00 | 0.00 | 33 | 1017.5 |
| 20260501201902 | 56 | 347 | 3.0 | 4.0 | 0.00 | 0.00 | 0.00 | 38 | 1017.5 |
| 20260501200902 | 55 | 33 | 2.0 | 3.0 | 0.00 | 0.00 | 0.00 | 33 | 1017.4 |
| 20260501195902 | 54 | 5 | 3.0 | 5.0 | 0.00 | 0.00 | 0.00 | 37 | 1017.5 |
| 20260501194932 | 53 | 12 | 2.0 | 5.0 | 0.00 | 0.00 | 0.00 | 36 | 1017.5 |
| 20260501193902 | 55 | 323 | 2.0 | 3.0 | 0.00 | 0.00 | 0.00 | 37 | 1017.5 |
| 20260501192902 | 55 | 54 | 2.0 | 3.0 | 0.00 | 0.00 | 0.00 | 34 | 1017.5 |
| 20260501191932 | 56 | 328 | 3.0 | 4.0 | 0.00 | 0.00 | 0.00 | 33 | 1017.6 |
| 20260501190902 | 56 | 25 | 4.0 | 5.0 | 0.00 | 0.00 | 0.00 | 40 | 1017.6 |
| 20260501185902 | 53 | 6 | 2.0 | 3.0 | 0.00 | 0.00 | 0.00 | 40 | 1017.7 |
| 20260501184902 | 55 | 350 | 2.0 | 3.0 | 0.00 | 0.00 | 0.00 | 34 | 1017.7 |
| 20260501183902 | 56 | 314 | 2.0 | 3.0 | 0.00 | 0.00 | 0.00 | 35 | 1017.6 |
| 20260501182902 | 55 | 337 | 1.0 | 2.0 | 0.00 | 0.00 | 0.00 | 41 | 1017.7 |
| 20260501181902 | 53 | 18 | 3.0 | 4.0 | 0.00 | 0.00 | 0.00 | 45 | 1017.7 |
| 20260501180932 | 52 | 320 | 2.0 | 3.0 | 0.00 | 0.00 | 0.00 | 37 | 1017.9 |
| 20260501175902 | 53 | 299 | 3.0 | 5.0 | 0.00 | 0.00 | 0.00 | 34 | 1018.0 |
| 20260501174932 | 54 | 348 | 2.0 | 3.0 | 0.00 | 0.00 | 0.00 | 38 | 1017.9 |
| 20260501173902 | 56 | 29 | 2.0 | 3.0 | 0.00 | 0.00 | 0.00 | 39 | 1018.0 |
| 20260501172932 | 56 | 9 | 2.0 | 4.0 | 0.00 | 0.00 | 0.00 | 36 | 1017.9 |
| 20260501171902 | 55 | 30 | 2.0 | 3.0 | 0.00 | 0.00 | 0.00 | 45 | 1018.0 |
| 20260501170902 | 54 | 7 | 2.0 | 3.0 | 0.00 | 0.00 | 0.00 | 42 | 1018.0 |
| 20260501165902 | 53 | 358 | 2.0 | 3.0 | 0.00 | 0.00 | 0.00 | 39 | 1018.1 |
| 20260501164902 | 52 | 345 | 3.0 | 4.0 | 0.00 | 0.00 | 0.00 | 40 | 1018.1 |
| 20260501163932 | 52 | 317 | 3.0 | 4.0 | 0.00 | 0.00 | 0.00 | 39 | 1018.1 |
| 20260501162932 | 52 | 7 | 3.0 | 5.0 | 0.00 | 0.00 | 0.00 | 42 | 1018.0 |
| 20260501161903 | 51 | 9 | 2.0 | 3.0 | 0.00 | 0.00 | 0.00 | 41 | 1018.0 |
| 20260501160902 | 51 | 240 | 3.0 | 5.0 | 0.00 | 0.00 | 0.00 | 44 | 1018.1 |
| 20260501155901 | 50 | 12 | 3.0 | 5.0 | 0.00 | 0.00 | 0.00 | 48 | 1018.1 |
| 20260501153902 | 49 | 36 | 3.0 | 7.0 | 0.00 | 0.00 | 0.00 | 48 | 1018.1 |
| 20260501152902 | 48 | 15 | 3.0 | 3.0 | 0.00 | 0.00 | 0.00 | 46 | 1018.1 |
| 20260501151903 | 48 | 10 | 3.0 | 4.0 | 0.00 | 0.00 | 0.00 | 47 | 1018.2 |
| 20260501150932 | 47 | 49 | 4.0 | 9.0 | 0.00 | 0.00 | 0.00 | 50 | 1018.1 |